User: anonymous   Login
Location: Unspecified
(48.8656°N, 0.0000°E)
Time: 23:55:30
(UTC+00:00)
Language:

Vanguard 1 Rocket - Orbit

View from above orbital plane
View from above orbital plane
View from above satellite
View from above satellite

Ground track
Ground track

The orbit data is extracted from the following two-line orbital elements,

1    16U 58002A   19170.19821882 +.00000005 +00000-0 +14827-4 0  9990
2    16 034.2601 126.4239 2026020 141.8951 234.3836 10.48747011420595
Epoch (UTC): 19 June 2019 04:45:26
Eccentricity: 0.2026020
inclination: 34.2601°
perigee height: 652 km
apogee height: 4224 km
right ascension of ascending node: 126.4239°
argument of perigee: 141.8951°
revolutions per day: 10.48747011
mean anomaly at epoch: 234.3836°
orbit number at epoch: 42059

The dashed part of the orbit path shows where the satellite is in the earth's shadow,  

DLR